Location: Baia de Cri?
(46.1667°N, 22.7167°E)
Time: 23:27:49
(UTC+00:00)

COSMO-SKYMED 1 - Pass Details

Date: 15 January 2026
Orbit: 577 x 579 km, 97.9° (Epoch: 13 February)

Event Time Altitude Azimuth Distance (km) Brightness Sun altitude
Rises 04:06:35 0° 172° (S) 2,785 6.1 -20.5°
Reaches altitude 10° 04:08:44 10° 175° (S) 1,891 5.2 -20.1°
Maximum altitude 04:12:49 67° 258° (WSW) 634 2.3 -19.4°
Enters shadow 04:14:38 32° 332° (NNW) 1,018 3.3 -19.1°
